Time,TemperatureF,DewpointF,PressureIn,WindDirection,WindDirectionDegrees,WindSpeedMPH,WindSpeedGustMPH,Humidity,HourlyPrecipIn,Conditions,Clouds,dailyrainin,SolarRadiationWatts/m^2,SoftwareType,DateUTC
2013-04-21 00:01:00,75.0,31.0,-100.00,NE,56,0.0,8.0,20,0.00,,,0.00,0.000000,,2013-04-21 07:01:00,
2013-04-21 00:32:00,68.0,27.0,-100.00,SW,224,0.0,2.0,21,0.00,,,0.00,0.000000,,2013-04-21 07:32:00,
2013-04-21 00:42:00,68.0,27.0,-100.00,SW,224,0.0,2.0,21,0.00,,,0.00,0.000000,,2013-04-21 07:42:00,
2013-04-21 00:52:00,68.0,27.0,-100.00,SW,224,0.0,2.0,21,0.00,,,0.00,0.000000,,2013-04-21 07:52:00,
2013-04-21 01:42:00,64.0,27.0,-100.00,NNE,14,0.0,2.0,25,0.00,,,0.00,0.000000,,2013-04-21 08:42:00,
2013-04-21 01:52:00,64.0,27.0,-100.00,NNE,14,0.0,2.0,25,0.00,,,0.00,0.000000,,2013-04-21 08:52:00,
2013-04-21 02:01:00,64.0,27.0,-100.00,NNE,14,0.0,2.0,25,0.00,,,0.00,0.000000,,2013-04-21 09:01:00,
2013-04-21 02:33:00,64.0,27.0,-100.00,NE,34,1.0,3.0,25,0.00,,,0.00,0.000000,,2013-04-21 09:33:00,
2013-04-21 02:43:00,64.0,27.0,-100.00,NE,34,1.0,3.0,25,0.00,,,0.00,0.000000,,2013-04-21 09:43:00,
2013-04-21 02:53:00,64.0,27.0,-100.00,NE,34,1.0,3.0,25,0.00,,,0.00,0.000000,,2013-04-21 09:53:00,
2013-04-21 03:02:00,64.0,27.0,-100.00,NE,34,1.0,3.0,25,0.00,,,0.00,0.000000,,2013-04-21 10:02:00,
2013-04-21 03:33:00,62.0,29.0,-100.00,NE,55,0.0,4.0,29,0.00,,,0.00,0.000000,,2013-04-21 10:33:00,
2013-04-21 03:42:00,62.0,29.0,-100.00,NE,55,0.0,4.0,29,0.00,,,0.00,0.000000,,2013-04-21 10:42:00,
2013-04-21 03:52:00,62.0,29.0,-100.00,NE,55,0.0,4.0,29,0.00,,,0.00,0.000000,,2013-04-21 10:52:00,
2013-04-21 04:02:00,62.0,29.0,-100.00,NE,55,0.0,4.0,29,0.00,,,0.00,0.000000,,2013-04-21 11:02:00,
2013-04-21 04:42:00,62.0,29.0,-100.00,NE,45,0.0,2.0,29,0.00,,,0.00,0.000000,,2013-04-21 11:42:00,
2013-04-21 04:52:00,62.0,29.0,-100.00,NE,45,0.0,2.0,29,0.00,,,0.00,0.000000,,2013-04-21 11:52:00,
2013-04-21 05:02:00,62.0,29.0,-100.00,NE,45,0.0,2.0,29,0.00,,,0.00,0.000000,,2013-04-21 12:02:00,
2013-04-21 05:32:00,58.0,26.0,-100.00,West,270,0.0,3.0,29,0.00,,,0.00,0.000000,,2013-04-21 12:32:00,
2013-04-21 05:42:00,58.0,26.0,-100.00,West,270,0.0,3.0,29,0.00,,,0.00,0.000000,,2013-04-21 12:42:00,
2013-04-21 05:52:00,58.0,26.0,-100.00,West,270,0.0,3.0,29,0.00,,,0.00,0.000000,,2013-04-21 12:52:00,
2013-04-21 06:01:00,58.0,26.0,-100.00,West,270,0.0,3.0,29,0.00,,,0.00,0.000000,,2013-04-21 13:01:00,
2013-04-21 06:32:00,57.0,24.0,-100.00,NW,304,0.0,0.0,28,0.00,,,-99.99,0.000000,,2013-04-21 13:32:00,
2013-04-21 06:42:00,57.0,24.0,-100.00,NW,304,0.0,0.0,28,0.00,,,-99.99,0.000000,,2013-04-21 13:42:00,
2013-04-21 06:52:00,57.0,24.0,-100.00,NW,304,0.0,0.0,28,0.00,,,-99.99,0.000000,,2013-04-21 13:52:00,
2013-04-21 07:32:00,57.0,19.0,-100.00,ESE,114,0.0,0.0,22,0.00,,,0.00,1.000000,,2013-04-21 14:32:00,
2013-04-21 08:33:00,64.0,10.0,-100.00,SSE,159,0.0,0.0,12,-99.99,,,0.00,104.000000,,2013-04-21 15:33:00,
2013-04-21 09:42:00,78.0,17.0,-100.00,South,176,5.0,0.0,10,0.00,,,0.00,362.000000,,2013-04-21 16:42:00,
2013-04-21 09:52:00,78.0,17.0,-100.00,South,176,5.0,0.0,10,0.00,,,0.00,362.000000,,2013-04-21 16:52:00,
2013-04-21 10:32:00,83.0,25.0,-100.00,SSW,194,7.0,9.0,12,0.00,,,0.00,643.000000,,2013-04-21 17:32:00,
2013-04-21 10:42:00,83.0,25.0,-100.00,SSW,194,7.0,9.0,12,0.00,,,0.00,643.000000,,2013-04-21 17:42:00,
2013-04-21 10:52:00,83.0,25.0,-100.00,SSW,194,7.0,9.0,12,0.00,,,0.00,643.000000,,2013-04-21 17:52:00,
2013-04-21 11:02:00,83.0,25.0,-100.00,SSW,194,7.0,9.0,12,0.00,,,0.00,643.000000,,2013-04-21 18:02:00,
2013-04-21 11:33:00,84.0,26.0,-100.00,South,179,8.0,12.0,12,0.00,,,0.00,852.000000,,2013-04-21 18:33:00,
2013-04-21 11:42:00,84.0,26.0,-100.00,South,179,8.0,12.0,12,0.00,,,0.00,852.000000,,2013-04-21 18:42:00,
2013-04-21 11:52:00,84.0,26.0,-100.00,South,179,8.0,12.0,12,0.00,,,0.00,852.000000,,2013-04-21 18:52:00,
2013-04-21 12:02:00,84.0,26.0,-100.00,South,179,8.0,12.0,12,0.00,,,0.00,852.000000,,2013-04-21 19:02:00,
2013-04-21 12:32:00,87.0,19.0,-100.00,SSE,165,7.0,13.0,8,0.00,,,0.00,996.000000,,2013-04-21 19:32:00,
2013-04-21 13:42:00,91.0,24.0,-100.00,South,183,8.0,12.0,9,0.00,,,0.00,1212.000000,,2013-04-21 20:42:00,
2013-04-21 13:52:00,91.0,24.0,-100.00,South,183,8.0,12.0,9,0.00,,,0.00,1212.000000,,2013-04-21 20:52:00,
2013-04-21 14:02:00,91.0,24.0,-100.00,South,183,8.0,12.0,9,0.00,,,0.00,1212.000000,,2013-04-21 21:02:00,
2013-04-21 14:33:00,92.0,25.0,-100.00,South,169,8.0,15.0,9,0.00,,,0.00,1257.000000,,2013-04-21 21:33:00,
2013-04-21 14:43:00,92.0,25.0,-100.00,South,169,8.0,15.0,9,0.00,,,0.00,1257.000000,,2013-04-21 21:43:00,
2013-04-21 14:53:00,92.0,25.0,-100.00,South,169,8.0,15.0,9,0.00,,,0.00,1257.000000,,2013-04-21 21:53:00,
2013-04-21 15:02:00,92.0,25.0,-100.00,South,169,8.0,15.0,9,0.00,,,0.00,1257.000000,,2013-04-21 22:02:00,
2013-04-21 15:33:00,95.0,18.0,-100.00,SSE,168,8.0,17.0,6,0.00,,,0.00,1209.000000,,2013-04-21 22:33:00,
2013-04-21 16:02:00,95.0,18.0,-100.00,SSE,168,8.0,17.0,6,0.00,,,0.00,1209.000000,,2013-04-21 23:02:00,
2013-04-21 16:32:00,97.0,19.0,-100.00,SSW,205,10.0,18.0,6,0.00,,,0.00,1095.000000,,2013-04-21 23:32:00,
2013-04-21 16:43:00,97.0,19.0,-100.00,SSW,205,10.0,18.0,6,0.00,,,0.00,1095.000000,,2013-04-21 23:43:00,
2013-04-21 16:52:00,97.0,19.0,-100.00,SSW,205,10.0,18.0,6,0.00,,,0.00,1095.000000,,2013-04-21 23:52:00,
2013-04-21 17:01:00,97.0,19.0,-100.00,SSW,205,10.0,18.0,6,0.00,,,0.00,1095.000000,,2013-04-22 00:01:00,
2013-04-21 18:32:00,93.0,20.0,-100.00,SSW,196,9.0,17.0,7,-99.99,,,0.00,615.000000,,2013-04-22 01:32:00,
2013-04-21 18:42:00,93.0,20.0,-100.00,SSW,196,9.0,17.0,7,-99.99,,,0.00,615.000000,,2013-04-22 01:42:00,
2013-04-21 18:52:00,93.0,20.0,-100.00,SSW,196,9.0,17.0,7,-99.99,,,0.00,615.000000,,2013-04-22 01:52:00,
2013-04-21 19:32:00,91.0,29.0,-100.00,SSW,210,8.0,16.0,11,0.00,,,0.00,325.000000,,2013-04-22 02:32:00,
2013-04-21 19:42:00,91.0,29.0,-100.00,SSW,210,8.0,16.0,11,0.00,,,0.00,325.000000,,2013-04-22 02:42:00,
2013-04-21 19:52:00,91.0,29.0,-100.00,SSW,210,8.0,16.0,11,0.00,,,0.00,325.000000,,2013-04-22 02:52:00,
2013-04-21 20:02:00,91.0,29.0,-100.00,SSW,210,8.0,16.0,11,0.00,,,0.00,325.000000,,2013-04-22 03:02:00,
2013-04-21 20:33:00,85.0,29.0,-100.00,SSW,205,7.0,14.0,13,0.00,,,0.00,41.000000,,2013-04-22 03:33:00,
2013-04-21 20:43:00,85.0,29.0,-100.00,SSW,205,7.0,14.0,13,0.00,,,0.00,41.000000,,2013-04-22 03:43:00,
2013-04-21 20:52:00,85.0,29.0,-100.00,SSW,205,7.0,14.0,13,0.00,,,0.00,41.000000,,2013-04-22 03:52:00,
2013-04-21 21:02:00,85.0,29.0,-100.00,SSW,205,7.0,14.0,13,0.00,,,0.00,41.000000,,2013-04-22 04:02:00,
2013-04-21 21:33:00,81.0,27.0,-100.00,South,185,8.0,12.0,14,0.00,,,0.00,1.000000,,2013-04-22 04:33:00,
2013-04-21 21:43:00,81.0,27.0,-100.00,South,185,8.0,12.0,14,0.00,,,0.00,1.000000,,2013-04-22 04:43:00,
2013-04-21 21:52:00,81.0,27.0,-100.00,South,185,8.0,12.0,14,0.00,,,0.00,1.000000,,2013-04-22 04:52:00,
2013-04-21 22:02:00,81.0,27.0,-100.00,South,185,8.0,12.0,14,0.00,,,0.00,1.000000,,2013-04-22 05:02:00,
2013-04-21 22:42:00,77.0,26.0,-100.00,SSE,168,4.0,13.0,15,0.00,,,0.00,0.000000,,2013-04-22 05:42:00,
2013-04-21 22:52:00,77.0,26.0,-100.00,SSE,168,4.0,13.0,15,0.00,,,0.00,0.000000,,2013-04-22 05:52:00,
2013-04-21 23:02:00,77.0,26.0,-100.00,SSE,168,4.0,13.0,15,0.00,,,0.00,0.000000,,2013-04-22 06:02:00,
2013-04-21 23:32:00,76.0,22.0,-100.00,SSE,150,6.0,13.0,13,0.00,,,0.00,0.000000,,2013-04-22 06:32:00,
2013-04-21 23:42:00,76.0,22.0,-100.00,SSE,150,6.0,13.0,13,0.00,,,0.00,0.000000,,2013-04-22 06:42:00,
2013-04-21 23:52:00,76.0,22.0,-100.00,SSE,150,6.0,13.0,13,0.00,,,0.00,0.000000,,2013-04-22 06:52:00,